Aeroporto :
LOGIN :

Iscrizione | Disclaimer

   EN    FR    IT 

 










Sommario :    VFR   VFR Marginale   IFR   IFR Intensivo   IFR Molto Intensivo
Visibilità : 
Base nubi : 
>= 8 km
>= 3000ft
5 / 8 km
1000 / 3000 ft
1500m / 5 km
500 / 1000 ft
800 / 1500m
200 / 500 ft
< 800m
< 200 ft
Simboli :   Temporali  Nebbia  Neve Forte  Precipitazioni Forti  Vento > 20 kt
SIGMETs :   Varie  Temporali  Ghiacco  Turbolenza  Onda orograficha  Ceneri Vulcaniche







- Altitudine del aeroporto : 306 ft
- Codice IATA : EMA
- Carte del aeroporto


EGNX - Nottingham East Midlands

ULTIMO METAR :
  • 130850Z 09010KT 9999 FEW036 01/M01 Q1017

METARs OBSOLETI :
  • 130820Z 11010KT 9999 FEW035 02/M01 Q1017
  • 130750Z 11013KT 9999 FEW033 02/M00 Q1017
  • 130720Z 11012KT 9999 FEW032 02/00 Q1017
  • 130650Z 10011KT 9999 FEW033 02/00 Q1016
  • 130620Z 11011KT 9999 SCT027 02/00 Q1016

TAF TAF EGNX
Valido dal 13 a 06 ore il 14 a 06 ore UTC


130454Z 1306/1406 13012KT 9999 SCT025
BECMG 1315/1318 07006KT
ATIS : +44 1332 852 852 (ext 3201)
Nessun NOTAM noto per questo aeroporto.



MetMap, La meteo Aeronautica in un colpo d'occhio ! - Copyright ORBIFLY Dicembre 2007 - Disclaimer

ORBIFLY MET'MAP TEAM :

Programmazione e sviluppo : Alexandra Zaïnal
Concezione e sviluppo : Baudouin d'Aumeries
Co-Programmazione e sviluppo : Marc-Olivier Méhu
Supporto tecnico e logistico : Manuel Goepfert
Aiuto per la traduzione : Arnaldo La Scala

Contatto : metmap@orbifly.com




FONTI E CREDITI :

   NOAA